TimePDT,TemperatureF,Dew PointF,Humidity,Sea Level PressureIn,VisibilityMPH,Wind Direction,Wind SpeedMPH,Gust SpeedMPH,PrecipitationIn,Events,Conditions,WindDirDegrees,DateUTC
12:00 AM,50.0,41.0,71,30.01,9.0,NNE,3.5,-,N/A,,Clear,20,2012-10-11 07:00:00
1:00 AM,48.2,41.0,76,30.01,9.0,Calm,Calm,-,N/A,,Clear,0,2012-10-11 08:00:00
2:00 AM,45,41,79,30.02,9,Calm,Calm,,,,,,2012-10-11 09:00:00
2:00 AM,44.6,41.0,87,30.02,9.0,Calm,Calm,-,N/A,,Clear,0,2012-10-11 09:00:00
3:00 AM,42.8,41.0,93,30.03,9.0,North,2.3,-,N/A,,Clear,350,2012-10-11 10:00:00
4:00 AM,42.8,39.2,87,30.04,9.0,Calm,Calm,-,N/A,,Clear,0,2012-10-11 11:00:00
5:00 AM,41,39,90,30.04,9,Calm,Calm,,,,,,2012-10-11 12:00:00
5:00 AM,41.0,39.2,93,30.04,9.0,Calm,Calm,-,N/A,,Clear,0,2012-10-11 12:00:00
6:00 AM,41.0,39.2,93,30.04,9.0,Calm,Calm,-,N/A,,Clear,0,2012-10-11 13:00:00
7:00 AM,39.2,37.4,93,30.04,5.0,Calm,Calm,-,N/A,,Clear,0,2012-10-11 14:00:00
7:03 AM,39.2,37.4,93,30.02,2.2,Calm,Calm,-,N/A,,Clear,0,2012-10-11 14:03:00
7:13 AM,39.2,37.4,93,30.02,2.0,Calm,Calm,-,N/A,,Mostly Cloudy,0,2012-10-11 14:13:00
7:30 AM,39.2,37.4,93,30.02,1.4,North,2.3,-,N/A,,Mostly Cloudy,360,2012-10-11 14:30:00
7:32 AM,39.2,37.4,93,30.02,1.0,North,2.3,-,N/A,,Overcast,350,2012-10-11 14:32:00
7:34 AM,39.2,37.4,93,30.02,0.6,Calm,Calm,-,N/A,,Overcast,0,2012-10-11 14:34:00
7:37 AM,39.2,37.4,93,30.02,0.4,Calm,Calm,-,N/A,,Overcast,0,2012-10-11 14:37:00
7:44 AM,39.2,37.4,93,30.02,0.2,Calm,Calm,-,N/A,,Scattered Clouds,0,2012-10-11 14:44:00
7:49 AM,39.2,37.4,93,30.02,0.4,Calm,Calm,-,N/A,,Mostly Cloudy,0,2012-10-11 14:49:00
7:58 AM,39.2,37.4,93,30.02,0.1,Calm,Calm,-,N/A,,Mostly Cloudy,0,2012-10-11 14:58:00
8:00 AM,39,38,93,30.04,0,Calm,Calm,,,,,,2012-10-11 15:00:00
8:00 AM,39.2,37.4,93,30.04,0.1,Calm,Calm,-,N/A,,Mostly Cloudy,0,2012-10-11 15:00:00
8:01 AM,39.2,37.4,93,30.02,0.1,Calm,Calm,-,N/A,,Clear,0,2012-10-11 15:01:00
8:04 AM,39.2,37.4,93,30.02,0.1,Calm,Calm,-,N/A,,Mostly Cloudy,0,2012-10-11 15:04:00
8:17 AM,39.2,37.4,93,30.02,0.5,Calm,Calm,-,N/A,,Mostly Cloudy,0,2012-10-11 15:17:00
8:18 AM,39.2,37.4,93,30.02,0.6,Calm,Calm,-,N/A,,Clear,0,2012-10-11 15:18:00
8:22 AM,39.2,37.4,93,30.02,0.6,Calm,Calm,-,N/A,,Mostly Cloudy,0,2012-10-11 15:22:00
8:34 AM,39.2,37.4,93,30.02,0.4,Calm,Calm,-,N/A,,Overcast,0,2012-10-11 15:34:00
8:40 AM,39.2,37.4,93,30.02,0.1,Calm,Calm,-,N/A,,Overcast,0,2012-10-11 15:40:00
8:49 AM,39.2,37.4,93,30.02,0.1,Calm,Calm,-,N/A,,Scattered Clouds,0,2012-10-11 15:49:00
8:51 AM,39.2,37.4,93,30.02,0.1,Calm,Calm,-,N/A,,Mostly Cloudy,0,2012-10-11 15:51:00
9:00 AM,39.2,39.2,100,30.04,0.1,Calm,Calm,-,N/A,,Overcast,0,2012-10-11 16:00:00
9:14 AM,39.2,37.4,93,30.01,0.5,Calm,Calm,-,N/A,,Mostly Cloudy,0,2012-10-11 16:14:00
9:17 AM,39.2,37.4,93,30.01,0.6,Calm,Calm,-,N/A,,Partly Cloudy,0,2012-10-11 16:17:00
9:18 AM,39.2,39.2,100,30.01,1.1,Calm,Calm,-,N/A,,Partly Cloudy,0,2012-10-11 16:18:00
9:24 AM,39.2,39.2,100,30.01,3.0,Calm,Calm,-,N/A,,Partly Cloudy,0,2012-10-11 16:24:00
9:27 AM,39.2,39.2,100,30.01,4.0,Calm,Calm,-,N/A,,Mostly Cloudy,0,2012-10-11 16:27:00
9:30 AM,39.2,39.2,100,30.01,5.0,Calm,Calm,-,N/A,,Clear,0,2012-10-11 16:30:00
10:00 AM,44.6,39.2,81,30.01,9.0,South,2.3,-,N/A,,Clear,180,2012-10-11 17:00:00
11:00 AM,52,38,47,29.98,9,Calm,Calm,,,,,,2012-10-11 18:00:00
11:00 AM,51.8,37.4,58,29.98,9.0,Calm,Calm,-,N/A,,Clear,0,2012-10-11 18:00:00
12:00 PM,55.4,35.6,47,29.94,9.0,NW,2.3,-,N/A,,Clear,320,2012-10-11 19:00:00
1:00 PM,57.2,35.6,44,29.92,9.0,North,3.5,-,N/A,,Partly Cloudy,10,2012-10-11 20:00:00
2:00 PM,58,37,34,29.88,9,Calm,Calm,,,,,,2012-10-11 21:00:00
2:00 PM,59.0,37.4,45,29.88,9.0,Calm,Calm,-,N/A,,Partly Cloudy,0,2012-10-11 21:00:00
3:00 PM,59.0,37.4,45,29.86,9.0,Calm,Calm,-,N/A,,Clear,0,2012-10-11 22:00:00
5:00 PM,58,38,35,29.80,9,North,3.5,,,,,10,2012-10-12 00:00:00
5:00 PM,59.0,37.4,45,29.80,9.0,North,2.3,-,N/A,,Clear,10,2012-10-12 00:00:00
6:00 PM,57.2,37.4,48,29.78,9.0,Calm,Calm,-,N/A,,Clear,0,2012-10-12 01:00:00
7:00 PM,53.6,37.4,54,29.77,9.0,Calm,Calm,-,N/A,,Clear,0,2012-10-12 02:00:00
8:00 PM,51,38,50,29.76,9,Calm,Calm,,,,,,2012-10-12 03:00:00
8:00 PM,51.8,37.4,58,29.76,9.0,Calm,Calm,-,N/A,,Clear,0,2012-10-12 03:00:00
9:00 PM,50.0,37.4,62,29.75,9.0,North,2.3,-,N/A,,Clear,360,2012-10-12 04:00:00
11:00 PM,47,37,58,29.72,9,NNE,3.5,,,,,30,2012-10-12 06:00:00
11:00 PM,48.2,37.4,66,29.72,9.0,Calm,Calm,-,N/A,,Clear,0,2012-10-12 06:00:00